Hourly Weather Dzhurzhivka

Today, 18 May, Tuesday

Time Temperature Precipitation Wind Pressure Humidity
00:00 +12°C° 0 mm 0 mps 731 mmHg 88%
01:00 +12°C° 0 mm 0 mps 731 mmHg 88%
02:00 +11°C° 0 mm 0 mps 730 mmHg 89%
03:00 +11°C° 0 mm 0 mps 730 mmHg 89%
04:00 +11°C° 0 mm 0 mps 730 mmHg 90%
05:00 +11°C° 0 mm 0 mps 730 mmHg 90%
06:00 +13°C° 0.2 mm 1 mps 730 mmHg 86%
07:00 +15°C° 0.2 mm 1 mps 730 mmHg 82%
08:00 +16°C° 0.2 mm 1 mps 730 mmHg 79%
09:00 +17°C° 0.9 mm 2 mps 730 mmHg 76%
10:00 +17°C° 0.9 mm 2 mps 730 mmHg 74%
11:00 +18°C° 0.9 mm 3 mps 730 mmHg 72%
12:00 +18°C° 0.7 mm 2 mps 730 mmHg 72%
13:00 +18°C° 0.7 mm 2 mps 730 mmHg 71%
14:00 +18°C° 0.7 mm 2 mps 729 mmHg 71%
15:00 +18°C° 1 mm 3 mps 729 mmHg 75%
16:00 +17°C° 1 mm 4 mps 729 mmHg 80%
17:00 +15°C° 1 mm 5 mps 729 mmHg 85%
18:00 +14°C° 1.4 mm 5 mps 730 mmHg 88%
19:00 +13°C° 1.4 mm 6 mps 730 mmHg 91%
20:00 +11°C° 1.4 mm 7 mps 730 mmHg 94%
21:00 +11°C° 2.1 mm 7 mps 730 mmHg 94%
22:00 +11°C° 2.1 mm 7 mps 731 mmHg 94%
23:00 +11°C° 2.1 mm 7 mps 731 mmHg 94%

Tomorrow, 19 May, Wednesday

Time Temperature Precipitation Wind Pressure Humidity
00:00 +11°C° 0.5 mm 7 mps 731 mmHg 94%
01:00 +10°C° 0.5 mm 7 mps 732 mmHg 93%
02:00 +10°C° 0.5 mm 7 mps 732 mmHg 92%
03:00 +10°C° 0.1 mm 7 mps 732 mmHg 91%
04:00 +10°C° 0.1 mm 8 mps 733 mmHg 90%
05:00 +10°C° 0.1 mm 8 mps 733 mmHg 89%
06:00 +10°C° 0 mm 8 mps 733 mmHg 88%
07:00 +10°C° 0 mm 8 mps 734 mmHg 87%
08:00 +11°C° 0 mm 8 mps 734 mmHg 85%
09:00 +12°C° 0 mm 8 mps 735 mmHg 81%
10:00 +12°C° 0 mm 8 mps 735 mmHg 76%
11:00 +13°C° 0 mm 8 mps 735 mmHg 72%
12:00 +15°C° 0 mm 8 mps 736 mmHg 69%
13:00 +16°C° 0 mm 7 mps 736 mmHg 66%
14:00 +16°C° 0 mm 7 mps 736 mmHg 63%
15:00 +16°C° 0.1 mm 6 mps 736 mmHg 65%
16:00 +16°C° 0.1 mm 5 mps 736 mmHg 68%
17:00 +16°C° 0.1 mm 5 mps 736 mmHg 70%
18:00 +14°C° 0.1 mm 4 mps 736 mmHg 76%
19:00 +13°C° 0.1 mm 3 mps 736 mmHg 82%
20:00 +11°C° 0.1 mm 3 mps 737 mmHg 87%
21:00 +12°C° 0 mm 2 mps 737 mmHg 89%
22:00 +10°C° 0 mm 2 mps 737 mmHg 90%
23:00 +9°C° 0 mm 2 mps 737 mmHg 91%

Day after tomorrow, 20 May, Thursday

Time Temperature Precipitation Wind Pressure Humidity
00:00 +9°C° 0 mm 2 mps 736 mmHg 91%
01:00 +9°C° 0 mm 2 mps 736 mmHg 92%
02:00 +8°C° 0 mm 2 mps 736 mmHg 93%
03:00 +9°C° 0 mm 1 mps 736 mmHg 93%
04:00 +9°C° 0 mm 1 mps 736 mmHg 93%
05:00 +10°C° 0 mm 1 mps 736 mmHg 93%
06:00 +11°C° 0.1 mm 1 mps 736 mmHg 89%
07:00 +12°C° 0.1 mm 2 mps 736 mmHg 86%
08:00 +13°C° 0.1 mm 2 mps 736 mmHg 83%
09:00 +13°C° 0.2 mm 2 mps 736 mmHg 81%
10:00 +14°C° 0.2 mm 1 mps 736 mmHg 79%
11:00 +14°C° 0.2 mm 1 mps 736 mmHg 77%
12:00 +14°C° 1.4 mm 1 mps 736 mmHg 82%
13:00 +13°C° 1.4 mm 2 mps 735 mmHg 86%
14:00 +13°C° 1.4 mm 2 mps 735 mmHg 91%
15:00 +11°C° 1.5 mm 3 mps 735 mmHg 92%
16:00 +11°C° 1.5 mm 3 mps 735 mmHg 93%
17:00 +11°C° 1.5 mm 3 mps 735 mmHg 94%
18:00 +10°C° 2.4 mm 4 mps 736 mmHg 95%
19:00 +10°C° 2.4 mm 4 mps 736 mmHg 96%
20:00 +10°C° 2.4 mm 4 mps 736 mmHg 96%
21:00 +10°C° 1.9 mm 4 mps 736 mmHg 96%
22:00 +10°C° 1.9 mm 4 mps 736 mmHg 96%
23:00 +10°C° 1.9 mm 3 mps 736 mmHg 95%

21 May, Friday

Time Temperature Precipitation Wind Pressure Humidity
00:00 +10°C° 0.7 mm 3 mps 737 mmHg 96%
01:00 +10°C° 0.7 mm 3 mps 737 mmHg 96%
02:00 +9°C° 0.7 mm 3 mps 738 mmHg 96%
03:00 +9°C° 0.1 mm 3 mps 738 mmHg 95%
04:00 +8°C° 0.1 mm 4 mps 738 mmHg 94%
05:00 +8°C° 0.1 mm 4 mps 739 mmHg 93%
06:00 +10°C° 0 mm 4 mps 739 mmHg 90%
07:00 +9°C° 0 mm 5 mps 740 mmHg 86%
08:00 +10°C° 0 mm 6 mps 740 mmHg 83%
09:00 +11°C° 0.2 mm 6 mps 740 mmHg 79%
10:00 +13°C° 0.2 mm 6 mps 741 mmHg 76%
11:00 +14°C° 0.2 mm 6 mps 741 mmHg 72%
12:00 +14°C° 0.2 mm 6 mps 741 mmHg 68%
13:00 +15°C° 0.2 mm 6 mps 741 mmHg 64%
14:00 +15°C° 0.2 mm 6 mps 741 mmHg 60%
15:00 +15°C° 0 mm 5 mps 741 mmHg 61%
16:00 +15°C° 0 mm 5 mps 741 mmHg 63%
17:00 +15°C° 0 mm 5 mps 741 mmHg 64%
18:00 +13°C° 0 mm 4 mps 742 mmHg 69%
19:00 +11°C° 0 mm 3 mps 742 mmHg 74%
20:00 +10°C° 0 mm 2 mps 742 mmHg 79%
21:00 +9°C° 0 mm 2 mps 742 mmHg 79%
22:00 +9°C° 0 mm 2 mps 742 mmHg 80%
23:00 +8°C° 0 mm 2 mps 743 mmHg 80%

22 May, Saturday

Time Temperature Precipitation Wind Pressure Humidity
00:00 +7°C° 0 mm 2 mps 742 mmHg 81%
01:00 +7°C° 0 mm 2 mps 742 mmHg 82%
02:00 +7°C° 0 mm 2 mps 742 mmHg 84%
03:00 +8°C° 0 mm 1 mps 742 mmHg 84%
04:00 +7°C° 0 mm 1 mps 742 mmHg 84%
05:00 +7°C° 0 mm 1 mps 742 mmHg 84%
06:00 +9°C° 0 mm 1 mps 742 mmHg 78%
07:00 +11°C° 0 mm 1 mps 742 mmHg 72%
08:00 +13°C° 0 mm 1 mps 742 mmHg 67%
09:00 +15°C° 0 mm 1 mps 742 mmHg 62%
10:00 +16°C° 0 mm 1 mps 742 mmHg 57%
11:00 +18°C° 0 mm 1 mps 742 mmHg 53%
12:00 +19°C° 0 mm 1 mps 742 mmHg 51%
13:00 +20°C° 0 mm 1 mps 741 mmHg 49%
14:00 +20°C° 0 mm 1 mps 741 mmHg 48%
15:00 +19°C° 0 mm 2 mps 741 mmHg 50%
16:00 +19°C° 0 mm 2 mps 740 mmHg 51%
17:00 +19°C° 0 mm 3 mps 740 mmHg 53%
18:00 +17°C° 0 mm 2 mps 740 mmHg 60%
19:00 +15°C° 0 mm 2 mps 740 mmHg 68%
20:00 +13°C° 0 mm 2 mps 740 mmHg 75%
21:00 +13°C° 0 mm 2 mps 740 mmHg 78%
22:00 +12°C° 0 mm 2 mps 740 mmHg 80%
23:00 +12°C° 0 mm 2 mps 740 mmHg 83%

23 May, Sunday

Time Temperature Precipitation Wind Pressure Humidity
00:00 +12°C° 0 mm 2 mps 740 mmHg 86%
01:00 +10°C° 0 mm 2 mps 740 mmHg 88%
02:00 +10°C° 0 mm 2 mps 740 mmHg 90%
03:00 +10°C° 0 mm 2 mps 740 mmHg 91%
04:00 +10°C° 0 mm 3 mps 740 mmHg 92%
05:00 +10°C° 0 mm 3 mps 740 mmHg 92%
06:00 +11°C° 0 mm 3 mps 740 mmHg 87%
07:00 +13°C° 0 mm 3 mps 739 mmHg 81%
08:00 +16°C° 0 mm 3 mps 739 mmHg 76%
09:00 +17°C° 0 mm 3 mps 739 mmHg 71%
10:00 +18°C° 0 mm 3 mps 740 mmHg 65%
11:00 +20°C° 0 mm 2 mps 740 mmHg 60%
12:00 +20°C° 0 mm 2 mps 739 mmHg 58%
13:00 +22°C° 0 mm 1 mps 739 mmHg 56%
14:00 +22°C° 0 mm 1 mps 739 mmHg 54%
15:00 +20°C° 0 mm 0 mps 739 mmHg 54%
16:00 +20°C° 0 mm 0 mps 739 mmHg 53%
17:00 +21°C° 0 mm 0 mps 739 mmHg 53%
18:00 +21°C° 0 mm 1 mps 739 mmHg 60%
19:00 +19°C° 0 mm 1 mps 739 mmHg 68%
20:00 +16°C° 0 mm 2 mps 739 mmHg 75%
21:00 +16°C° 0 mm 2 mps 739 mmHg 77%
22:00 +16°C° 0 mm 2 mps 739 mmHg 79%
23:00 +15°C° 0 mm 2 mps 739 mmHg 81%
Show more